map of DIE home
DIE - Airport
Location
City:  Antsiranana, Madagascar
Name:Arrachart
ICAO:FMNA
IATA:DIE

Details
Type:Airport (Aerodrome, Airfield)
Latitude:1220'58"S (-12.349399)
Longitude:4917'30"E (49.291747)
Datum:WGS 1984
Elevation:374 ft (114 m)
Variation:8.99W (WMM2015v2 magnetic declination)
-0.04 annual change
Runways:1
Longest:4921 × 98 ft (1500 × 30 m), paved

Time
Time Zone:UTC+3
Local Time:

Weather
METAR:FMNA 041400Z 26006KT 9999 FEW020 SCT230 29/23 Q1009
TAF:FMNA 041100Z 0412/0512 30007KT 9999 BKN020CB SCT040 PROB40
TEMPO 0412/0424 4000 TSRA

Related Locations
Nearby:
Farthest:MMCD: 10965 mi / 17646 km
Cedros [Isla de Cedros Airport], Isla de Cedros, BCN, MX

Find:

   beyond  
but within

Other Information
Maps:
NOTAMs:
Links:
Sources:

  
  • flag of Madagascar
  

Sectional Chart

Flight Planning
at skyvector.com

Satellite Image

Google Maps Satellite view

 

Copyright © 2004-2019 Karl L. Swartz. All rights reserved.
The Great Circle Mapper name and logo are trademarks of the Great Circle Mapper.
All other trademarks mentioned herein belong to their respective owners.
Please see credits for attibutions and further copyright information.

  Follow gcmap on Facebook Follow gcmap on Twitter GCmap on LinkedIn

hCard Microformat

Geo Microformat